Location: ?????????
(53.2086°N, 54.0693°E)
Time: 13:38:59
(UTC+00:00)

Cosmos 1812 - Pass Details

Date: 08 December 2019
Orbit: 516 x 523 km, 82.5° (Epoch: 22 January)

Event Time Altitude Azimuth Distance (km) Brightness Sun altitude
Rises 14:53:54 0° 215° (SW) 2,646 6.9 -23.7°
Reaches altitude 10° 14:56:12 10° 225° (SW) 1,763 6.1 -24.0°
Maximum altitude 14:59:41 32° 290° (WNW) 930 4.5 -24.5°
Enters shadow 15:02:03 17° 344° (NNW) 1,382 4.9 -24.9°
